Regional Weather Roundup
Issued by NWS

Home | Current Version | Previous Version | Graphics & Text | Print | Product List | Glossary On
Versions: 1 2 3 4 5 6 7 8 9 10 11 12 13 14 15 16 17 18 19 20 21 22 23 24 25 26 27 28 29 30 31 32 33 34 35 36 37 38 39 40 41 42 43 44 45 46 47 48 49 50
000
ASUS43 KMKX 271111
RWRWI

WISCONSIN REGIONAL WEATHER ROUNDUP
NATIONAL WEATHER SERVICE MILWAUKEE/SULLIVAN WI
600 AM CDT MON MAR 27 2017

NOTE: "FAIR" INDICATES FEW OR NO CLOUDS BELOW 12,000 FEET WITH NO
SIGNIFICANT WEATHER AND/OR OBSTRUCTIONS TO VISIBILITY.

WIZ001-002-006>008-014>016-023>028-271200-
NORTHWEST WISCONSIN

CITY           SKY/WX    TMP DP  RH WIND       PRES   REMARKS
SUPERIOR ARPT  PTCLDY    32  32 100 SW5       29.96S FOG     WCI  27
ASHLAND        CLOUDY    32  31  96 CALM      29.96R
HAYWARD        CLOUDY    35  32  88 CALM      29.95R
SIREN          CLOUDY    34  34  99 CALM      29.96F
CUMBERLAND     RAIN      32  32 100 NW3       29.94F
RICE LAKE      DRIZZLE   35  34  97 CALM      29.96R
CHETEK         CLOUDY    34  34  99 CALM      29.95R
LADYSMITH      DRIZZLE   34  33  96 N3        29.95R
EAU CLAIRE     CLOUDY    38  35  89 N6        29.93R WCI  33
MENOMONIE      CLOUDY    37  36  96 NW6       29.94F FOG     WCI  32
NEW RICHMOND   RAIN      35  35 100 CALM      29.96S
OSCEOLA        CLOUDY    35  35 100 CALM      29.99S
$$

WIZ003>005-009-010-017-018-271200-
NORTH CENTRAL WISCONSIN

CITY           SKY/WX    TMP DP  RH WIND       PRES   REMARKS
MANITOWISH WTR CLOUDY    31  31 100 N6        29.91R FOG     WCI  25
ARBOR VITAE    CLOUDY    33  33  96 N6        29.90R WCI  28
WOODRUFF       CLOUDY    33  33  96 N6        29.90R WCI  28
RHINELANDER    CLOUDY    34  33  96 VRB5      29.91R WCI  30
EAGLE RIVER    CLOUDY    32  32 100 NW3       29.91R
LAND O LAKES   CLOUDY    32  32 100 NW3       29.92R
PHILLIPS       CLOUDY    32  32 100 CALM      29.91R
TOMAHAWK       LGT RAIN  32  32  99 CALM      29.92R
MEDFORD        CLOUDY    33  32  96 N3        29.91R
MERRILL        CLOUDY    34  34 100 CALM      29.92R
$$

WIZ029-030-035-036-043>047-271200-
CENTRAL WISCONSIN

CITY           SKY/WX    TMP DP  RH WIND       PRES   REMARKS
WAUSAU         CLOUDY    36  34  92 N6        29.89S WCI  31
MOSINEE        CLOUDY    37  37 100 N7        29.91S FOG     WCI  32
MARSHFIELD     CLOUDY    37  36  96 N9        29.89S FOG     WCI  30
STEVENS POINT  CLOUDY    37  37 100 NW3       29.91R
WAUPACA        CLOUDY    40  39  97 CALM      29.91R FOG
WAUTOMA        CLOUDY    39  39 100 W5        29.92R
WISC RAPIDS    CLOUDY    39  39 100 NE3       29.91S
CAMP DOUGLAS   CLOUDY    39  39 100 W6        29.91R WCI  35
$$

WIZ011>013-019>022-031-037>040-048>050-271200-
NORTHEAST WISCONSIN

CITY           SKY/WX    TMP DP  RH WIND       PRES   REMARKS
ANTIGO         CLOUDY    33  33 100 NW6       29.90R FOG     WCI  28
SHAWANO        CLOUDY    39  37  95 CALM      29.92R
OCONTO         CLOUDY    36  35  96 W3        29.92R
STURGEON BAY   CLOUDY    36  36 100 W7        29.91R FOG     WCI  30
GREEN BAY      CLOUDY    38  38 100 NW5       29.91R WCI  34
MANITOWOC      CLOUDY    38  36  92 NW6       29.91R WCI  33
APPLETON       FOG       37  37 100 VRB3      29.88F VSB 1/2
CLINTONVILLE   CLOUDY    36  36 100 CALM      29.90S
OSHKOSH        CLOUDY    38  37  97 NW5       29.90R WCI  34
$$

WIZ032>034-041-042-053>061-271200-
SOUTHWEST WISCONSIN

CITY           SKY/WX    TMP DP  RH WIND       PRES   REMARKS
LA CROSSE      CLOUDY    42  41  96 CALM      29.92S FOG
SPARTA         CLOUDY    38  38 100 CALM      29.92S FOG
VIROQUA        CLOUDY    39  39 100 NW5       29.90S VSB 1/4
BOSCOBEL       CLOUDY    42  41  96 SW3       29.93R FOG
PRAIRIE DU CHI CLOUDY    41  40  95 NW3       29.93R FOG
PLATTEVILLE    CLOUDY    41  41 100 W5        29.92R
$$

WIZ056-057-062-063-064-067-068-271200-
SOUTH CENTRAL WISCONSIN

CITY           SKY/WX    TMP DP  RH WIND       PRES   REMARKS
REEDSBURG      CLOUDY    39  39 100 CALM      29.89F
BARABOO/DELLS  CLOUDY    39  38  97 CALM      29.89F FOG
LONE ROCK      CLOUDY    42  40  92 W3        29.91S FOG
MINERAL POINT  CLOUDY    41  41 100 CALM      29.90S
MADISON        CLOUDY    40  39  97 N3        29.89F
MIDDLETON      CLOUDY    42  42 100 CALM      29.90S
WATERTOWN      CLOUDY    39  39 100 NW5       29.90F
MONROE         CLOUDY    41  41 100 CALM      29.90R FOG
JANESVILLE     CLOUDY    43  43 100 CALM      29.90R
$$

WIZ051-052-058>065-066-070>072-271200-
SOUTHEAST WISCONSIN

CITY           SKY/WX    TMP DP  RH WIND       PRES   REMARKS
MILWAUKEE      CLOUDY    43  38  82 NW6       29.89S
WAUKESHA       CLOUDY    37  37 100 NW7       29.91R WCI  32
MILWAUKEE/TIMM CLOUDY    39  36  87 NW6       29.91S WCI  35
RACINE         CLOUDY    42  39  89 NW5       29.91F
KENOSHA        CLOUDY    43  41  93 NW5       29.90S
FOND DU LAC    CLOUDY    39  36  89 CALM      29.91R
SHEBOYGAN      CLOUDY    38  36  92 NW6       29.90R WCI  33
WEST BEND      CLOUDY    37  37 100 W5        29.91R WCI  34
JUNEAU         CLOUDY    38  38 100 CALM      29.92R FOG
$$

LSZ147-162-271200-
LAKE SUPERIOR

STATION/POSITION TIME  TEMP    WIND        PRES    WAVE
                       AIR SEA DIR/SP/G            HT/PER
                 (UTC) (F)     (DEG/KT/KT) (MB)    (FT/S)
DEVILS ISLAND    1100   33     240/  8/  9 1015.0S
PORT WING        1030   34     230/  1/  3 1014.6S
SAXON HARBOR     1040   33     360/  3/  5 1014.2R
$$

LMZ867-665-643>646-271200-
LAKE MICHIGAN

STATION/POSITION TIME  TEMP    WIND        PRES    WAVE
                       AIR SEA DIR/SP/G            HT/PER
                 (UTC) (F)     (DEG/KT/KT) (MB)    (FT/S)
CHAMBERS ISLAND  1040   35     290/  3/  6 1012.2R
NORTHPORT PIER   1040   34     290/  7/ 10 1012.5R
SISTER BAY       0951   34        CALM       N/A
KEWAUNEE LAKESHO 1048   37     300/  2/  5 1012.3R
SHEBOYGAN LAKESH 1100   38     310/  5/  6 1013.0R
PORT WASHINGTON  1030   41     290/  3/  6 1013.5R
MILWAUKEE LAKESH 1050   42     290/  4/  5   N/A
KENOSHA   LAKESH 1100   43     330/  2/  5 1012.9
$$

TC  - TEMPERATURE IN CELSIUS
VSB - VISIBILITY IN STATUTE MILES
WCI - WIND CHILL INDEX
HX  - HEAT INDEX




USA.gov is the U.S. government's official web portal to all federal, state and local government web resources and services.